Flag for U.S.A. Weather past 2 weeks in Seattle, Washington, U.S.A.

Now
53 °F

Overcast.


Feels Like: 52 °F
Forecast: 38 / 49 °F
Wind: 5 mph from Northwest

Location: Seattle Boeing Field

Current Time: Feb 27, 2015 at 6:51:19 PM

Latest Report: Feb 27, 2015 at 5:53 PM


Visibility: 10 mi

Pressure: 29.80 "Hg

Humidity: 66%

Dew point: 42 °F

Location of SeattleLocation

Historic Weather in Seattle — Graph

°F

Seattle temperature yesterday

Maximum temperature yesterday: 54 °F (at 1:53 PM)
Minimum temperature yesterday: 48 °F (at 2:01 AM)
Average temperature yesterday: 51 °F

Past Weeks' High & Low Weather Summary

 TemperatureHumidityPressure
High73 °F (Feb 12, 5:53 PM)95% (Feb 13, 5:53 AM)30.48 "Hg (Feb 13, 5:53 AM)
Low33 °F (Feb 23, 4:53 AM)31% (Feb 22, 3:53 PM)29.72 "Hg (Feb 27, 5:53 AM)
Average50 °F70%30.27 "Hg
* Reported Feb 12 4:53 PM — Feb 27 4:53 PM, Seattle, Weather by CustomWeather, © 2015

Note: Actual official high and low records may vary slightly from our data, if they occured in-between our weather recording intervals... More about our weather records

Advertising

Seattle weather history for previous 24 hours

 ConditionsComfort  
Time TempWeatherWind HumidityBarometerVisibility
4:53 PM
Fri, Feb 27
53 °FOvercast.3 mph72%29.79 "Hg10 mi
3:53 PM53 °FOvercast.9 mph72%29.78 "Hg10 mi
2:53 PM54 °FLow clouds.7 mph69%29.76 "Hg10 mi
1:53 PM54 °FLow clouds.5 mph67%29.76 "Hg10 mi
12:53 PM53 °FOvercast.6 mph69%29.76 "Hg10 mi
11:53 AM51 °FOvercast.6 mph77%29.76 "Hg10 mi
10:53 AM50 °FLight rain. More clouds than sun.7 mph80%29.76 "Hg10 mi
9:53 AM50 °FLight rain. Overcast.5 mph77%29.75 "Hg10 mi
8:53 AM50 °FOvercast.6 mph80%29.75 "Hg10 mi
7:53 AM49 °FMore clouds than sun.5 mph84%29.73 "Hg10 mi
6:53 AM49 °FLight rain. Overcast.6 mph84%29.72 "Hg10 mi
5:53 AM49 °FLight rain. Overcast.9 mph80%29.72 "Hg10 mi
4:53 AM49 °FLight rain. Overcast.8 mph84%29.72 "Hg7 mi
3:53 AM49 °FLight rain. Overcast.5 mph86%29.74 "Hg7 mi
2:53 AM49 °FRain. Fog.No wind90%29.76 "Hg4 mi
1:53 AM50 °FLight rain. Fog.No wind86%29.78 "Hg5 mi
12:53 AM50 °FRain. Overcast.3 mph83%29.78 "Hg7 mi
11:53 PM
Thu, Feb 26
51 °FLight rain. Overcast.5 mph83%29.81 "Hg6 mi
10:53 PM51 °FLight rain. Overcast.7 mph86%29.83 "Hg9 mi
9:53 PM51 °FLight rain. Overcast.7 mph86%29.86 "Hg8 mi
8:53 PM52 °FLight rain. Mostly cloudy.6 mph83%29.89 "Hg5 mi
7:53 PM52 °FMostly cloudy.No wind83%29.91 "Hg7 mi
6:53 PM52 °FOvercast.6 mph80%29.93 "Hg10 mi
Weather by CustomWeather, © 2015

See weather overviewHow to use our weather pages